This is the latest recevied weather packets stored in our database for station/object VE3VGJ. If no packets are shown the sender has not sent any weather packets the latest 10 day(s).
| Time | Temp. | Humidity | Pressure | Rain* | Wind** | Luminosity | Snow |
|---|---|---|---|---|---|---|---|
| 1777287987 | 4.44° C | 85% | 1023.7 hPa | 0 mm | - | 44 W/m² | - |
| 1777287685 | 3.89° C | 87% | 1023.9 hPa | 0 mm | - | 38 W/m² | - |
| 1777287380 | 3.33° C | 89% | 1024 hPa | 0 mm | - | 33 W/m² | - |
| 1777287076 | 2.78° C | 89% | 1023.9 hPa | 0 mm | - | 23 W/m² | - |
| 1777286773 | 2.78° C | 89% | 1023.9 hPa | 0 mm | - | 20 W/m² | - |
| 1777286471 | 2.78° C | 89% | 1023.8 hPa | 0 mm | - | 17 W/m² | - |
| 1777286168 | 2.78° C | 89% | 1024 hPa | 0 mm | - | 15 W/m² | - |
| 1777285866 | 2.78° C | 89% | 1023.6 hPa | 0 mm | - | 12 W/m² | - |
| 1777285563 | 2.78° C | 88% | 1023.6 hPa | 0 mm | - | 9 W/m² | - |
| 1777285260 | 2.78° C | 88% | 1023.4 hPa | 0 mm | - | 6 W/m² | - |
| 1777284957 | 2.78° C | 87% | 1023.2 hPa | 0 mm | - | 4 W/m² | - |
| 1777284654 | 2.78° C | 87% | 1023.2 hPa | 0 mm | - | 3 W/m² | - |
| 1777284350 | 3.33° C | 87% | 1023.2 hPa | 0 mm | - | 1 W/m² | - |
| 1777284048 | 3.33° C | 88% | 1023.2 hPa | 0 mm | - | 1 W/m² | - |
| 1777283744 | 3.33° C | 88% | 1023.3 hPa | 0 mm | - | 0 W/m² | - |
| 1777283443 | 3.33° C | 88% | 1023.4 hPa | 0 mm | - | 0 W/m² | - |
| 1777283141 | 3.33° C | 87% | 1023.2 hPa | 0 mm | - | 0 W/m² | - |
| 1777282838 | 3.33° C | 87% | 1023.3 hPa | 0 mm | - | 0 W/m² | - |
| 1777282533 | 3.33° C | 87% | 1023.1 hPa | 0 mm | - | 0 W/m² | - |
| 1777282230 | 3.33° C | 87% | 1023.1 hPa | 0 mm | - | 0 W/m² | - |
| 1777281927 | 3.33° C | 87% | 1023.1 hPa | 0 mm | - | 0 W/m² | - |
| 1777281625 | 3.33° C | 87% | 1023.4 hPa | 0 mm | - | 0 W/m² | - |
| 1777281322 | 3.33° C | 86% | 1023.2 hPa | 0 mm | - | 0 W/m² | - |
| 1777281018 | 3.33° C | 86% | 1023.1 hPa | 0 mm | - | 0 W/m² | - |
| 1777280715 | 3.89° C | 86% | 1023.1 hPa | 0 mm | - | 0 W/m² | - |
* Rain latest hour (hover to see other rain measurements)
** Current wind speed in m/s (hover to see current wind gust speed)